This is the latest recevied weather packets stored in our database for station/object G4WLC-1. If no packets are shown the sender has not sent any weather packets the latest 1 day(s).
| Time | Temp. | Humidity | Pressure | Rain* | Wind** | Luminosity | Snow |
|---|---|---|---|---|---|---|---|
| 1778076781 | 15.56° C | 56% | 1014.4 hPa | 0 mm | - | - | - |
| 1778076481 | 15° C | 59% | 1014.4 hPa | 0 mm | - | - | - |
| 1778076181 | 15° C | 58% | 1014.4 hPa | 0 mm | - | - | - |
| 1778075881 | 15.56° C | 54% | 1014.5 hPa | 0 mm | - | - | - |
| 1778075581 | 16.11° C | 55% | 1014.5 hPa | 0 mm | - | - | - |
| 1778075281 | 16.11° C | 57% | 1014.4 hPa | 0 mm | - | - | - |
| 1778074981 | 15.56° C | 60% | 1014.5 hPa | 0 mm | - | - | - |
| 1778074681 | 15° C | 59% | 1014.5 hPa | 0 mm | - | - | - |
| 1778074381 | 15.56° C | 56% | 1014.5 hPa | 0 mm | - | - | - |
| 1778074081 | 15.56° C | 57% | 1014.5 hPa | 0 mm | - | - | - |
| 1778073781 | 15.56° C | 62% | 1014.5 hPa | 0 mm | - | - | - |
| 1778073181 | 15° C | 57% | 1014.5 hPa | 0 mm | - | - | - |
| 1778072881 | 15° C | 62% | 1014.5 hPa | 0 mm | - | - | - |
| 1778072581 | 15° C | 58% | 1014.4 hPa | 0 mm | - | - | - |
| 1778072281 | 15° C | 60% | 1014.5 hPa | 0 mm | - | - | - |
| 1778071981 | 14.44° C | 62% | 1014.6 hPa | 0 mm | - | - | - |
| 1778071681 | 14.44° C | 62% | 1014.6 hPa | 0 mm | - | - | - |
| 1778071381 | 14.44° C | 60% | 1014.7 hPa | 0 mm | - | - | - |
| 1778070481 | 14.44° C | 59% | 1014.5 hPa | 0 mm | - | - | - |
| 1778069281 | 13.33° C | 61% | 1014.7 hPa | 0 mm | - | - | - |
| 1778068981 | 13.33° C | 60% | 1014.6 hPa | 0 mm | - | - | - |
| 1778067181 | 12.78° C | 61% | 1014.9 hPa | 0 mm | - | - | - |
| 1778065981 | 12.78° C | 64% | 1014.7 hPa | 0 mm | - | - | - |
| 1778065381 | 12.78° C | 66% | 1014.6 hPa | 0 mm | - | - | - |
| 1778064781 | 12.78° C | 66% | 1014.9 hPa | 0 mm | - | - | - |
* Rain latest hour (hover to see other rain measurements)
** Current wind speed in m/s (hover to see current wind gust speed)